Weather History for Jackson, WY

Change the Weather History Date:

Friday, March 8, 2013

  Actual Average Record
Temperature  
Mean Temperature 27 °F -  
Max Temperature 33 °F 39 °F 53 °F (1987)
Min Temperature 21 °F 14 °F -14 °F (1998)
Degree Days  
Heating Degree Days 38    
Moisture  
Dew Point 25 °F    
Average Humidity 95    
Maximum Humidity 100    
Minimum Humidity 81    
Precipitation  
Precipitation 0.02 in - - ()
Sea Level Pressure  
Sea Level Pressure 29.86 in    
Wind  
Wind Speed 4 mph (NNE)    
Max Wind Speed 15 mph    
Max Gust Speed -    
Visibility 7 miles    
Events Snow    
Averages and records for this station are not official NWS values.
T = Trace of Precipitation, MM = Missing Value Source: NWS Daily Summary

Daily Weather History Graph

Daily Weather History Graph

Search for Another Location

Airport:

Trip Planner

Search our weather history database for the weather conditions in past years. The results will help you decide how hot, cold, wet, or windy it might be!

Date:

Astronomy

Mar. 08, 2013 Rise Set
Actual Time 6:46 AM MST 6:20 PM MST
Civil Twilight 6:18 AM MST 6:49 PM MST
Nautical Twilight 5:45 AM MST 7:22 PM MST
Astronomical Twilight 5:11 AM MST 7:56 PM MST
Moon 4:38 AM MST (3/8) 3:15 PM MST (3/8)
Length of Visible Light 12h 31m
Length of Day
11h 34m
Waning Crescent, 11% of the Moon is Illuminated
Mar 8
Waning Crescent
Mar 11
New
Mar 19
First Quarter
Mar 27
Full
Apr 2
Last Quarter

Hourly Weather History & Observations

Time (MST) Temp. Windchill Dew Point Humidity Pressure Visibility Wind Dir Wind Speed Gust Speed Precip Events Conditions
12:15 AM 21.2 °F - 21.2 °F 100% 29.95 in 10.0 mi Calm Calm - N/A   Overcast
12:35 AM 21.2 °F 13.6 °F 19.4 °F 93% 29.95 in 10.0 mi North 5.8 mph - N/A   Overcast
12:55 AM 21.2 °F 16.4 °F 19.4 °F 93% 29.94 in 10.0 mi NNE 3.5 mph - N/A   Overcast
1:35 AM 21.2 °F 14.9 °F 19.4 °F 93% 29.94 in 10.0 mi NNW 4.6 mph - N/A   Overcast
1:55 AM 23.0 °F 18.4 °F 21.2 °F 93% 29.94 in 10.0 mi North 3.5 mph - N/A   Overcast
2:15 AM 23.0 °F 18.4 °F 23.0 °F 100% 29.94 in 2.0 mi NNE 3.5 mph - N/A   Overcast
2:35 AM 23.0 °F 18.4 °F 23.0 °F 100% 29.93 in 1.5 mi NNE 3.5 mph - N/A   Overcast
2:55 AM 23.0 °F 17.0 °F 23.0 °F 100% 29.92 in 1.5 mi NNE 4.6 mph - N/A   Overcast
3:15 AM 24.8 °F 19.1 °F 24.8 °F 100% 29.92 in 1.2 mi North 4.6 mph - 0.01 in   Overcast
3:55 AM 24.8 °F 19.1 °F 24.8 °F 100% 29.90 in 3.0 mi North 4.6 mph - 0.02 in   Overcast
4:15 AM 24.8 °F - 24.8 °F 100% 29.90 in 4.0 mi Calm Calm - N/A   Mostly Cloudy
4:35 AM 24.8 °F 20.5 °F 23.0 °F 93% 29.90 in 7.0 mi NNE 3.5 mph - N/A   Overcast
4:55 AM 24.8 °F 20.5 °F 24.8 °F 100% 29.90 in 3.0 mi ENE 3.5 mph - N/A   Overcast
5:35 AM 24.8 °F 20.5 °F 24.8 °F 100% 29.90 in 3.0 mi NE 3.5 mph - N/A   Overcast
5:55 AM 24.8 °F - 24.8 °F 100% 29.90 in 2.0 mi Calm Calm - N/A   Overcast
6:15 AM 24.8 °F 17.9 °F 23.0 °F 93% 29.89 in 2.5 mi North 5.8 mph - N/A   Overcast
6:35 AM 23.0 °F - 23.0 °F 100% 29.89 in 9.0 mi Calm Calm - N/A   Overcast
6:52 AM 23.0 °F - 23.0 °F 100% 29.89 in 6.0 mi Calm Calm - N/A Snow Light Snow
7:55 AM 24.8 °F 17.9 °F 23.0 °F 93% 29.89 in 3.0 mi North 5.8 mph - N/A Snow Light Snow
8:55 AM 24.8 °F - 24.8 °F 100% 29.89 in 2.0 mi Calm Calm - N/A Snow Light Snow
9:10 AM 26.6 °F - 24.8 °F 93% 29.89 in 1.0 mi Calm Calm - N/A Snow Light Snow
9:31 AM 26.6 °F - 24.8 °F 93% 29.88 in 2.0 mi Calm Calm - N/A Snow Light Snow
9:56 AM 26.6 °F - 26.6 °F 100% 29.88 in 4.0 mi Calm Calm - N/A Snow Light Snow
10:54 AM 28.4 °F - 26.6 °F 93% 29.86 in 6.0 mi Calm Calm - N/A Snow Snow Showers
11:26 AM 28.4 °F - 28.4 °F 100% 29.86 in 1.5 mi Calm Calm - N/A Snow Light Snow
11:51 AM 30.2 °F - 28.4 °F 93% 29.85 in 2.0 mi Calm Calm - N/A Snow Light Snow
12:36 PM 33.8 °F - 28.4 °F 81% 29.84 in 7.0 mi Calm Calm - N/A   Mostly Cloudy
1:52 PM 33.8 °F - 28.4 °F 81% 29.80 in 10.0 mi Calm Calm - N/A   Scattered Clouds
2:51 PM 33.8 °F 30.8 °F 28.4 °F 81% 29.79 in 10.0 mi East 3.5 mph - N/A   Scattered Clouds
3:56 PM 33.8 °F 30.8 °F 28.4 °F 81% 29.79 in 10.0 mi East 3.5 mph - N/A   Scattered Clouds
4:50 PM 33.8 °F 29.6 °F 28.4 °F 81% 29.78 in 10.0 mi NE 4.6 mph - N/A   Scattered Clouds
5:56 PM 32.0 °F 23.0 °F 30.2 °F 93% 29.79 in 10.0 mi North 11.5 mph - N/A   Partly Cloudy
6:54 PM 30.2 °F 20.2 °F 28.4 °F 93% 29.78 in 10.0 mi North 12.7 mph - N/A   Partly Cloudy
7:51 PM 28.4 °F 20.4 °F 26.6 °F 93% 29.80 in 10.0 mi NNW 8.1 mph - N/A   Clear
8:51 PM 26.6 °F 14.7 °F 26.6 °F 100% 29.81 in 10.0 mi North 15.0 mph - N/A   Clear
9:15 PM 28.4 °F 17.0 °F 26.6 °F 93% 29.81 in 10.0 mi North 15.0 mph - N/A   Clear
9:35 PM 28.4 °F 17.5 °F 24.8 °F 86% 29.81 in 10.0 mi North 13.8 mph - N/A   Clear
9:55 PM 26.6 °F 15.7 °F 24.8 °F 93% 29.81 in 10.0 mi North 12.7 mph - N/A   Clear
10:15 PM 26.6 °F 14.7 °F 24.8 °F 93% 29.81 in 10.0 mi North 15.0 mph - N/A   Clear
10:35 PM 24.8 °F 14.0 °F 24.8 °F 100% 29.81 in 10.0 mi North 11.5 mph - N/A   Clear
10:55 PM 24.8 °F 14.6 °F 23.0 °F 93% 29.81 in 10.0 mi North 10.4 mph - N/A   Clear
11:15 PM 23.0 °F 14.7 °F 21.2 °F 93% 29.81 in 10.0 mi NNW 6.9 mph - N/A   Clear
11:35 PM 21.2 °F - 21.2 °F 100% 29.82 in 10.0 mi Calm Calm - N/A   Clear
11:55 PM 21.2 °F 12.6 °F 21.2 °F 100% 29.81 in 10.0 mi North 6.9 mph - N/A   Clear